Wind_Speed
20 19 18 18 17 16 14 14 14 12 10 10 10 10 11 11 12 10 4 8 7 4 3 3 3 4 3 2 4 6 4 2 4 6 6 5 8 5 6 3 5 11 9 10 11 11 13 9 7 10 5 6 5 9
20 19 18 17 17 17 14 15 15 11 10 9 10 9 9 8 10 10 5 7 8 5 5 5 10 10 7 4 5 4 3 3 5 4 0 4 6 2 5 8 4 6 3 5 3 2 6 4 3 6 7 9 12 10
22 21 20 18 16 16 16 14 13 11 10 9 9 8 7 6 7 8 7 9 6 3 4 4 2 1 2 6 11 4 3 4 3 3 3 2 4 3 7 8 2 3 1 4 2 6 2 4 5 7 8 11 13 14
20 20 19 18 18 17 16 15 13 12 10 9 8 8 6 6 6 7 6 7 5 4 4 5 2 3 5 3 7 9 5 4 6 4 3 3 3 2 2 4 5 5 1 4 6 3 5 3 8 11 11 10 10 10
21 20 20 18 17 16 14 13 12 11 11 8 7 8 7 5 5 5 4 2 4 6 4 2 1 3 4 3 4 5 5 5 4 3 4 3 2 4 3 3 7 4 4 6 4 5 4 5 12 13 10 10 6 4
21 20 18 18 17 16 15 15 12 11 10 8 7 7 6 5 4 5 3 4 2 7 3 2 2 2 2 2 6 6 6 4 4 3 3 3 1 4 4 7 4 3 2 5 2 6 8 12 11 8 9 11 6 6
19 18 19 18 16 15 14 15 14 11 10 7 6 6 5 5 4 6 5 3 2 7 3 3 3 3 2 2 4 4 5 3 4 2 3 5 3 4 7 11 5 3 5 6 9 10 12 10 11 12 11 9 9 12
20 18 18 17 17 16 16 14 14 12 9 8 6 5 5 5 7 7 2 5 4 5 3 3 1 4 2 2 3 1 3 4 5 3 2 5 3 4 4 6 6 8 11 11 10 8 9 11 12 14 11 10 10 9
20 18 17 17 16 15 14 14 15 12 10 8 5 4 5 5 4 2 1 0 4 4 3 2 3 3 1 2 1 4 3 4 3 4 4 3 7 7 7 7 7 7 7 10 12 14 14 14 14 13 13 13 13 13
16 16 15 14 14 16 15 12 15 13 11 8 6 5 4 3 3 4 4 4 4 4 3 3 1 1 4 0 3 2 2 2 3 4 1 5 9 14 8 7 8 8 8 12 13 13 13 13 13 13 14 13 12 13
11 13 15 14 13 11 12 13 17 15 11 6 4 2 5 8 4 2 2 3 3 3 4 2 3 2 2 4 2 1 2 1 3 4 3 4 5 6 4 1 2 4 7 10 12 14 15 18 18 15 14 14 12 13
11 16 13 14 14 14 12 17 21 17 8 7 5 3 5 2 1 3 3 2 4 2 4 4 4 1 3 2 3 2 3 2 4 2 4 4 5 7 3 3 5 7 11 14 16 18 19 18 17 15 12 10 11 1
7 12 13 16 18 16 15 19 21 12 11 7 3 4 2 1 3 4 6 3 3 4 5 6 5 1 4 3 2 2 3 4 3 4 4 3 6 3 6 9 11 14 16 16 17 21 22 17 14 12 7 4 10 13
8 10 14 16 18 19 18 21 21 12 4 1 3 3 3 3 5 4 3 2 4 2 5 4 4 1 2 4 1 3 1 3 4 4 5 3 6 9 13 13 14 17 19 17 17 14 13 9 6 7 12 15 12 9
14 11 14 16 18 23 22 23 21 8 3 1 2 3 6 2 0 0 2 3 4 3 4 3 3 2 2 2 2 2 3 4 4 4 7 11 16 18 19 19 18 16 14 14 13 7 3 6 10 13 14 13 12 11
18 17 13 18 24 23 24 23 11 3 2 2 3 4 3 5 4 5 6 5 4 3 1 2 2 2 3 2 3 4 3 4 4 6 10 14 18 20 15 14 13 14 10 10 4 6 9 8 8 9 10 11 10 11
12 8 20 26 25 25 23 6 3 3 2 3 4 5 4 3 1 5 6 5 4 3 3 2 4 4 2 3 3 3 2 5 7 11 10 14 14 12 9 9 9 10 8 3 2 6 7 8 11 11 8 9 10 10
18 17 20 23 25 15 8 3 2 4 4 5 4 3 4 2 2 5 5 4 4 2 1 2 3 2 3 3 1 3 4 7 8 8 8 12 10 9 12 7 7 8 10 6 8 8 8 8 6 6 6 7 8 9
15 16 19 23 11 4 4 6 4 3 6 3 5 3 3 3 4 2 4 5 4 2 1 0 3 3 4 3 4 5 7 5 3 6 7 8 5 8 11 4 5 8 3 7 7 7 8 8 6 4 4 4 4 5
15 17 19 8 2 2 3 3 3 3 3 2 4 4 4 3 4 6 5 5 4 3 4 4 4 3 3 4 1 3 6 6 5 4 2 5 5 6 8 9 8 3 6 5 6 2 4 2 2 2 4 3 3 5
9 10 5 5 2 3 2 2 3 2 2 2 2 4 3 4 5 6 6 4 5 3 4 5 6 7 8 10 11 11 10 6 5 4 3 3 4 5 5 6 5 5 7 8 6 4 5 7 4 2 2 3 2 2
1 5 0 0 2 2 3 2 1 2 1 1 2 2 3 4 4 3 3 4 2 3 2 2 4 7 9 10 9 8 9 8 6 4 5 5 5 3 4 4 6 5 7 6 6 7 6 4 4 3 5 3 4 4
3 5 3 4 3 3 4 3 2 2 2 3 4 3 2 1 1 3 1 2 3 4 8 9 16 18 12 11 10 9 3 3 1 4 2 3 4 4 7 5 7 9 8 7 6 9 7 2 7 9 6 5 7 8
10 6 5 3 5 3 4 5 3 2 2 2 4 4 3 3 6 3 2 2 2 2 3 5 6 3 3 1 1 3 4 2 4 2 3 7 4 4 6 8 9 9 9 9 10 9 8 8 4 9 8 8 9 10
1 2 4 3 4 3 1 4 5 4 3 9 5 3 2 1 3 4 7 3 5 5 4 2 4 4 5 5 4 5 3 8 9 6 5 5 7 8 7 6 7 7 9 9 9 10 10 9 9 10 11 10 10 11
3 2 4 7 4 4 5 4 6 9 9 6 4 3 1 3 4 4 5 6 5 8 7 6 5 5 5 5 6 7 9 9 9 10 9 11 12 11 8 7 6 6 5 8 9 10 10 11 11 12 13 13 12 13
6 7 3 1 3 4 2 3 4 5 6 5 3 2 3 4 6 4 5 8 6 10 9 8 7 7 6 7 7 6 6 7 8 10 12 12 11 11 11 11 12 14 10 10 10 10 10 10 10 11 12 14 15 15
4 5 8 8 7 7 13 8 6 6 5 2 2 4 5 4 4 4 5 7 6 8 9 9 8 8 8 8 8 8 8 8 9 10 13 8 5 5 6 9 11 14 15 16 16 15 14 14 13 13 13 13 13 13
4 2 4 13 10 7 10 14 10 6 7 9 11 12 10 6 4 6 6 6 6 10 10 10 11 9 8 6 6 8 9 10 13 13 12 10 9 14 16 16 16 15 14 14 15 18 19 20 20 19 18 17 16 15
11 8 11 14 15 14 8 8 11 9 8 9 8 7 7 7 7 4 5 7 9 9 8 7 7 10 11 12 13 15 15 13 13 14 9 11 14 21 20 20 21 21 21 21 21 21 21 19 20 21 22 22 21 19
4 7 10 9 9 7 6 4 7 6 5 6 5 6 6 4 10 9 11 7 5 11 13 12 12 12 14 15 15 14 12 17 15 15 16 18 20 20 21 22 22 22 22 22 22 21 21 21 20 20 19 19 21 19
4 3 4 4 4 3 3 4 4 4 4 4 4 4 4 5 4 5 10 12 13 12 10 12 12 14 16 17 17 15 13 17 17 17 15 16 15 17 19 18 19 19 19 20 20 20 21 22 22 22 21 20 20 21
0 2 2 1 2 2 2 3 1 0 1 1 2 2 3 4 4 4 5 9 10 12 12 13 15 18 19 16 17 15 16 17 17 16 11 15 15 18 18 17 19 20 21 21 19 19 19 20 20 20 21 20 18 17
Wind_Direction
280 274 276 274 276 277 275 283 301 305 316 329 330 335 344 345 353 2 334 359 350 313 324 322 338 317 307 298 301 18 254 159 249 245 251 212 257 179 238 292 222 222 220 222 243 258 235 132 142 235 11 340 352 312
275 275 271 266 265 269 271 280 286 293 309 319 323 328 335 334 340 358 313 338 325 257 344 299 289 278 282 344 327 334 4 20 13 273 190 310 232 225 258 218 171 232 322 294 275 35 85 85 344 321 312 293 292 298
268 270 271 268 265 262 268 272 272 276 295 307 315 318 320 326 324 343 323 330 309 272 215 234 131 57 309 258 240 285 115 347 76 350 331 329 266 309 232 236 275 157 323 267 255 132 44 316 318 323 319 293 285 272
272 265 264 261 260 263 263 266 267 268 276 293 302 301 307 313 305 337 328 331 304 295 283 107 176 302 307 263 211 228 306 293 297 294 291 292 280 351 301 348 279 16 160 244 250 236 311 133 26 351 327 311 292 271
269 266 257 253 254 252 251 252 256 260 259 274 284 290 294 301 293 314 297 327 7 324 330 336 316 85 56 180 206 210 249 281 275 250 241 244 297 273 198 289 245 207 259 251 325 50 343 350 343 336 325 323 306 251
264 261 254 251 253 251 251 245 244 249 245 254 269 278 286 279 290 283 221 215 309 351 282 265 64 180 349 264 218 226 240 245 259 288 265 266 237 281 268 254 294 359 299 17 56 341 329 310 311 359 341 330 292 240
258 256 251 247 247 244 245 235 236 238 227 230 251 260 262 258 263 274 353 40 288 328 278 271 180 119 349 199 149 174 195 219 261 255 242 272 233 227 259 255 236 228 274 269 309 307 302 314 315 320 319 320 309 296
250 251 246 238 242 236 236 233 224 224 211 216 227 234 237 251 271 260 232 275 261 271 258 283 148 186 346 176 158 181 163 199 187 258 217 247 221 225 260 256 279 285 279 282 296 300 303 304 296 286 299 305 289 262
248 253 239 231 230 234 240 229 209 211 199 205 205 217 194 226 226 95 287 104 202 294 308 269 271 110 303 139 149 173 242 207 113 239 231 237 227 223 237 244 245 248 278 297 303 303 300 292 288 286 287 284 274 266
246 232 224 223 224 225 227 218 195 192 182 177 174 207 203 151 208 161 207 201 196 186 224 266 49 195 299 86 141 247 207 277 239 170 118 240 253 246 234 239 247 273 303 294 288 292 299 298 299 289 282 279 273 273
218 213 216 219 204 204 204 198 176 168 161 185 168 226 93 143 208 223 223 218 172 238 205 235 278 295 107 284 35 4 346 291 255 120 260 244 256 180 106 256 336 287 289 290 299 298 293 289 288 285 277 269 276 275
225 216 213 211 206 187 192 177 172 172 179 179 161 145 142 186 197 223 203 177 234 235 159 206 138 256 107 304 268 154 276 227 254 52 251 251 84 90 64 6 334 321 315 307 305 299 296 291 284 270 269 274 272 120
204 186 198 189 186 185 185 175 166 165 144 117 241 188 156 109 193 204 185 215 219 173 174 175 159 170 159 229 238 259 242 241 346 235 243 289 83 34 354 337 332 329 329 313 303 297 294 282 269 256 250 176 144 154
197 186 187 188 188 185 173 170 163 144 91 153 154 143 218 164 228 205 230 100 73 247 154 171 138 228 98 205 267 242 282 271 261 249 252 328 46 345 329 321 317 317 316 307 296 292 289 255 231 182 154 154 151 173
103 141 158 165 167 161 158 163 156 125 80 288 249 212 207 234 126 187 113 132 154 142 184 173 166 269 153 242 208 292 224 251 250 285 347 351 335 316 312 313 306 304 300 296 282 263 233 152 159 149 148 148 136 138
84 94 108 148 148 149 149 143 137 81 165 247 222 247 193 226 162 172 172 178 161 173 158 255 158 212 221 234 223 237 258 247 349 355 318 305 298 296 292 295 305 297 283 272 240 120 122 122 126 126 142 141 148 142
87 100 115 126 134 138 139 116 140 140 231 240 220 222 274 315 270 164 186 177 130 200 170 181 197 195 229 236 233 222 285 345 318 304 303 288 284 304 315 280 287 317 308 251 130 115 122 141 147 147 134 129 128 128
115 125 134 141 136 135 139 149 150 176 236 237 250 164 198 283 203 145 182 170 193 230 225 74 321 251 235 243 222 31 335 298 303 295 314 316 347 26 22 36 24 2 342 46 81 94 96 97 95 93 110 117 121 130
134 143 149 150 144 125 159 175 209 246 225 248 237 228 206 212 227 335 173 175 206 65 157 344 252 232 255 23 324 288 278 281 288 302 302 294 303 139 139 190 41 320 13 62 62 73 78 52 55 77 115 168 129 151
125 138 148 146 255 243 175 178 213 260 243 182 247 207 215 219 193 193 210 204 203 223 227 216 229 242 263 250 254 256 278 290 296 304 244 317 8 67 50 37 37 34 89 97 85 354 107 107 59 39 21 23 237 169
111 150 178 228 277 272 293 223 224 267 340 259 319 206 212 218 217 213 222 172 199 225 240 248 260 271 307 294 279 276 278 255 253 278 328 19 25 15 30 35 17 23 1 11 13 81 285 352 4 321 263 254 235 211
210 195 50 261 308 303 275 267 332 37 267 301 270 222 233 203 186 175 125 192 245 255 275 263 267 282 274 274 287 286 291 287 271 261 233 273 301 358 349 333 335 26 338 332 336 330 340 322 326 298 279 206 239 245
189 213 223 210 204 206 269 179 189 208 205 217 173 196 203 115 109 97 144 211 258 228 217 230 251 262 262 266 264 266 242 279 322 341 9 10 297 343 326 313 321 320 322 325 330 292 315 350 257 262 281 264 275 271
205 189 193 210 202 249 185 193 222 223 221 219 172 180 193 163 161 218 44 86 157 190 191 194 190 171 195 175 61 16 27 8 302 336 339 319 343 330 333 323 329 330 330 309 301 303 301 293 304 273 263 273 270 269
275 201 220 227 219 252 264 149 145 160 97 70 67 47 6 72 40 58 74 75 63 65 67 69 87 60 41 45 45 89 40 351 357 334 27 324 317 317 318 343 340 2 350 337 335 329 315 305 295 290 288 282 284 286
2 18 1 359 358 359 12 65 65 71 87 91 79 91 110 88 68 45 27 11 24 28 21 26 7 10 51 30 11 23 13 357 339 323 359 344 323 319 318 313 313 327 2 338 333 327 318 306 295 289 285 279 258 255
23 24 15 25 328 300 33 53 62 52 56 52 55 59 53 63 54 47 41 29 21 19 20 18 18 12 15 18 14 9 360 352 349 328 315 310 308 303 296 296 305 308 310 295 291 296 302 305 304 300 293 286 279 277
359 3 19 24 56 46 57 55 52 40 36 53 48 64 43 53 59 47 45 43 43 59 54 50 43 35 30 19 10 4 5 356 358 349 348 341 320 307 315 310 305 296 284 278 280 284 283 283 286 290 293 292 289 280
29 19 35 61 61 57 40 49 62 50 56 76 80 82 92 86 92 79 52 30 7 38 32 32 25 16 21 12 6 352 343 340 340 334 334 331 329 334 333 319 310 304 298 289 277 270 269 269 271 272 274 274 273 272
59 77 75 69 67 69 55 61 74 79 77 95 107 124 117 97 76 38 13 24 18 23 10 4 4 10 1 359 355 351 347 3 356 344 335 329 323 319 319 318 317 313 308 302 294 289 287 270 266 266 261 260 258 255
81 79 81 80 78 68 65 85 98 84 81 78 74 87 84 111 103 58 39 9 360 30 14 6 10 18 356 351 344 336 333 339 335 331 334 325 322 324 324 320 315 313 309 307 304 298 295 296 295 295 287 276 277 276
76 54 82 79 78 56 23 44 44 64 72 86 91 114 132 93 77 78 19 6 15 12 13 357 356 349 345 339 337 337 341 326 332 337 336 337 337 337 333 330 333 330 323 316 311 308 307 304 298 292 289 283 276 271
297 46 15 20 47 23 43 314 335 325 248 98 81 36 39 23 64 50 44 19 3 354 352 347 343 340 339 335 335 330 330 327 329 326 326 337 335 339 335 332 335 333 333 329 327 326 327 331 328 326 320 318 323 326
Height
814 814 814 814 813 813 812 812 811 809 808 806 804 802 800 797 795 793 790 788 786 773 764 768 766 762 756 754 748 747 739 736 726 727 715 709 715 707 716 711 715 720 725 720 722 731 746 708 715 731 724 711 713 713
808 809 808 809 808 809 808 808 808 807 805 804 802 801 800 798 796 793 790 789 787 784 771 774 771 771 771 768 764 753 755 752 750 738 730 724 721 717 715 723 716 727 715 717 716 719 718 712 718 716 717 721 718 717
802 803 803 803 803 804 804 804 804 804 803 802 801 800 799 798 796 795 792 790 786 778 767 768 764 769 769 769 770 762 755 760 756 760 749 738 740 729 723 718 723 720 719 718 723 718 718 717 713 715 715 717 715 713
795 796 797 798 799 799 800 800 800 800 800 800 799 798 797 797 796 794 792 791 789 783 767 761 769 768 768 768 768 768 767 766 764 756 747 741 739 735 724 726 725 717 722 719 719 719 718 715 720 721 719 715 713 711
789 790 791 792 794 794 795 796 797 797 798 798 797 797 796 795 795 794 793 792 791 789 771 760 765 767 767 767 768 768 768 766 758 753 747 741 739 739 729 732 723 714 718 724 721 730 728 725 725 722 720 716 713 712
782 783 785 787 788 790 791 792 793 794 795 795 796 795 795 794 794 794 789 791 790 789 780 759 764 765 766 766 767 767 766 765 761 754 747 745 746 747 737 730 717 720 724 723 728 729 729 728 724 721 720 718 714 713
775 777 779 781 783 784 786 788 789 791 793 794 795 794 794 794 794 791 786 791 790 790 781 762 755 762 765 764 762 763 766 763 760 753 752 747 743 748 736 735 721 725 728 727 726 727 728 724 725 724 723 720 720 717
769 770 772 775 778 780 782 784 786 788 790 792 794 794 794 794 793 790 789 789 789 787 783 768 755 758 763 754 754 761 757 760 760 753 752 750 740 744 740 727 727 728 728 727 725 724 725 726 726 723 721 720 719 718
762 763 767 770 773 776 778 781 783 786 788 791 793 793 794 793 788 786 788 787 788 789 775 768 755 750 761 756 758 758 756 753 753 752 747 744 737 738 729 729 731 728 728 728 726 725 725 725 723 722 720 718 716 714
755 758 762 765 769 772 774 777 781 784 787 790 792 791 785 786 788 789 788 783 783 780 779 768 767 757 761 755 754 756 753 745 744 738 741 742 729 719 719 722 725 727 730 731 729 727 723 720 718 717 716 714 713 712
750 754 758 762 765 769 772 775 779 784 787 789 789 787 787 788 788 785 783 779 776 775 769 766 766 758 766 758 754 760 754 750 746 735 741 723 717 713 725 728 729 731 730 729 727 724 721 719 716 714 712 710 709 709
748 751 755 759 763 767 770 775 778 782 783 785 786 787 789 788 786 785 776 776 773 764 765 763 764 766 766 770 761 762 757 755 750 742 741 728 714 726 729 732 732 731 730 727 725 721 717 713 712 708 706 706 707 706
747 749 753 757 761 766 770 774 778 782 784 788 788 784 781 794 791 784 778 774 763 764 764 765 766 763 770 769 764 763 761 753 748 748 737 722 728 730 733 733 731 729 726 724 720 716 711 707 706 705 704 706 711 713
745 748 751 755 760 765 770 775 780 784 786 786 786 789 782 786 778 763 759 757 764 764 764 763 763 763 765 764 762 764 755 758 754 744 733 719 730 736 738 736 733 729 725 722 716 710 705 702 702 703 706 710 713 717
745 748 751 756 760 765 771 777 782 785 790 788 784 780 772 762 763 764 764 768 770 768 766 765 765 764 762 765 762 762 760 760 744 733 729 731 740 740 738 736 730 726 723 719 711 706 704 705 707 708 710 712 715 719
752 753 755 757 763 769 775 781 785 788 791 789 785 774 765 763 760 765 766 767 768 767 769 767 767 767 765 762 764 760 754 746 736 752 755 753 747 740 739 736 728 727 722 719 712 705 705 708 710 713 717 716 719 721
757 759 763 764 770 775 780 783 786 788 789 784 771 768 765 763 757 761 764 765 769 771 769 770 769 767 762 761 760 754 753 762 764 761 756 749 740 737 733 731 729 725 718 713 711 709 711 713 714 716 716 718 720 721
763 766 769 771 775 779 782 782 783 784 784 774 766 761 768 766 763 763 765 767 769 770 770 774 777 769 758 755 749 761 767 765 763 758 753 743 742 735 733 730 728 726 722 717 715 715 715 716 716 717 719 720 720 722
768 771 773 775 777 778 780 781 782 774 769 765 766 766 768 766 768 766 766 770 771 774 772 780 775 770 759 759 765 767 765 762 759 754 748 744 743 741 737 736 732 728 724 722 720 718 719 719 717 717 718 718 718 720
773 776 778 779 780 777 775 776 778 770 763 765 764 762 765 763 763 766 767 768 770 773 771 770 764 759 762 762 763 764 761 757 754 749 747 740 738 734 734 730 729 725 723 723 722 722 720 720 720 720 719 719 718 719
778 780 781 781 779 776 774 770 768 767 766 767 767 766 765 764 763 763 763 768 774 768 762 758 757 756 758 758 758 756 752 750 749 745 741 735 737 736 734 732 730 728 726 723 722 722 723 721 721 722 722 721 722 722
779 780 781 781 780 778 775 773 771 776 775 774 774 769 764 761 760 763 766 769 767 762 762 760 759 758 755 753 749 747 746 746 744 741 740 739 733 734 736 735 732 731 731 727 726 724 723 723 723 723 722 722 724 722
777 779 779 778 779 780 776 773 773 773 772 767 764 763 759 759 762 765 768 768 765 759 759 758 756 755 754 750 748 746 744 743 739 739 738 739 738 736 734 732 731 730 728 726 727 725 723 726 726 726 723 724 722 721
774 775 775 775 774 769 770 769 770 762 764 756 755 760 755 754 762 761 754 754 754 755 753 752 751 750 749 747 745 744 743 741 739 738 737 735 733 734 734 733 731 730 729 728 726 724 723 722 723 722 720 720 720 719
773 770 768 762 760 754 744 741 741 741 741 742 749 753 752 751 753 752 754 755 752 751 751 748 743 743 741 740 739 740 744 740 737 736 735 736 734 730 728 728 728 728 728 726 724 723 722 721 720 719 718 717 717 717
765 760 759 751 748 745 740 737 738 736 734 737 742 744 743 743 756 764 757 756 753 749 749 749 749 744 744 743 741 741 743 743 741 735 734 735 734 731 729 727 725 724 726 727 725 723 722 720 718 718 717 716 716 717
756 754 754 757 756 748 740 739 738 738 740 742 743 740 738 748 757 760 756 758 756 756 755 753 751 748 747 746 746 746 745 744 743 742 739 736 734 733 732 729 726 725 725 724 723 722 720 718 717 715 713 712 710 710
763 760 757 749 745 741 742 741 744 746 745 742 741 746 753 756 764 762 761 762 760 757 756 755 754 752 751 750 748 746 744 742 740 738 735 731 729 729 729 728 726 724 723 721 720 718 716 715 713 712 710 708 707 705
759 758 750 749 747 748 749 749 749 750 745 747 752 756 760 762 763 762 764 763 760 757 755 754 754 751 749 748 746 745 743 741 740 738 735 731 727 726 725 723 721 719 717 715 713 712 711 710 707 705 704 702 701 700
757 755 756 757 757 759 759 755 756 757 757 757 759 760 761 762 765 766 764 762 760 759 757 755 753 752 751 748 747 746 743 742 743 743 739 736 733 730 726 723 719 716 712 710 706 704 702 701 700 698 697 696 695 693
760 760 761 760 763 762 761 759 758 759 758 758 758 758 760 761 765 766 766 764 761 759 760 758 756 757 756 754 751 749 746 746 744 743 742 739 735 731 727 724 719 715 711 707 704 701 698 696 694 692 690 690 690 689
764 764 763 765 764 763 761 760 760 760 759 760 759 757 757 758 761 765 769 767 764 763 763 762 760 759 758 757 753 751 750 747 744 743 741 739 736 732 728 722 718 714 710 705 701 697 692 689 686 682 680 680 679 679
765 763 763 763 763 763 761 761 760 761 760 760 760 760 761 761 766 768 770 770 770 767 766 764 762 760 758 756 753 751 749 746 744 741 738 737 735 731 726 722 718 714 709 703 698 694 690 687 684 680 678 674 672 672